Tracking 30107 objects as of 25-Jan-2025
HD Live streaming from Space Station
objects crossing your sky now

SHIYAN 21 (SY-21)

Track SHIYAN 21 (SY-21) now!
10-day predictions


NORAD ID: 54752
Int'l Code: 2022-172A
Perigee: 477.0 km
Apogee: 500.0 km
Inclination: 36.0 °
Period: 94.2 minutes
Semi major axis: 6859 km
RCS: Unknown
Launch date: December 16, 2022
Source: People's Republic of China (PRC)
Launch site: Xichang Space Center, China (XSC)
Your satellite tracking list
Your tracking list is empty




NASA's NSSDC Master Catalog

Two Line Element Set (TLE):
1 54752U 22172A   25025.27885889  .00018487  00000-0  65571-3 0  9991
2 54752  35.9535  10.6468 0016708 113.8789 246.3696 15.28145979117960
Source of the keplerian elements: AFSPC